Location: Azul
(36.7830°S, 59.8500°W)
Time: 09:39:27
(UTC-03:00)

KKS-1 - Visible Passes

Search period start: 22 October 2021 00:00
Search period end: 01 November 2021 00:00
Orbit: 636 x 649 km, 98.2° (Epoch: 22 October)

Date Brightness Start Highest point End Pass type
(mag) Time Alt. Az. Time Alt. Az. Time Alt. Az.
22 Oct ? 20:41:55 19° E 20:42:36 20° ESE 20:45:54 10° SSE visible
22 Oct ? 22:19:33 33° WSW 22:19:33 33° WSW 22:23:00 10° SSW visible
23 Oct ? 21:06:24 35° E 21:06:42 35° ESE 21:10:50 10° S visible
23 Oct ? 22:44:03 18° W 22:44:03 18° W 22:46:32 10° SW visible
24 Oct ? 21:30:54 66° ESE 21:30:54 66° ESE 21:35:24 10° S visible
25 Oct ? 20:17:53 10° E 20:19:15 11° ESE 20:20:37 10° SE visible
25 Oct ? 21:55:24 65° W 21:55:24 65° W 21:59:41 10° SSW visible
26 Oct ? 20:42:15 19° E 20:43:16 20° ESE 20:46:33 10° SSE visible
26 Oct ? 22:19:53 34° W 22:19:53 34° W 22:23:40 10° SSW visible
27 Oct ? 21:06:45 33° E 21:07:22 35° ESE 21:11:29 10° S visible
27 Oct ? 22:44:23 19° W 22:44:23 19° W 22:47:10 10° SW visible
28 Oct ? 21:31:14 64° E 21:31:33 66° ESE 21:36:03 10° S visible
29 Oct ? 20:18:32 10° E 20:19:54 11° ESE 20:21:15 10° SE visible
29 Oct ? 21:55:44 66° WNW 21:55:49 66° WNW 22:00:19 10° SSW visible
30 Oct ? 20:42:36 18° E 20:43:54 20° ESE 20:47:11 10° SSE visible
30 Oct ? 22:20:14 34° W 22:20:14 34° W 22:24:18 10° SSW visible
31 Oct ? 21:07:05 32° E 21:08:01 35° ESE 21:12:07 10° S visible
31 Oct ? 22:44:43 19° W 22:44:43 19° W 22:47:48 10° SW visible
